Skip Page Navigation
NASA JPL Caltech
NASA Logo - Jet Propulsion Laboratory + View the NASA Portal
+ Near-Earth Object (NEO) Program
Search JPL
JPL Home Earth Solar System Stars & Galaxies Technology
JPL Solar System Dynamics
BODIES ORBITS EPHEMERIDES TOOLS PHYSICAL DATA DISCOVERY FAQ SITE MAP
JPL Small-Body Database Browser
Search: [ help ]  
(2005 XJ8)
Classification: Apollo [NEO, PHA]          SPK-ID: 3306656
Ephemeris | Orbit Diagram | Orbital Elements | Physical Parameters | Close-Approach Data ]

[ hide orbit diagram ]
Orbit Diagram
Note: Make sure you have Java enabled on your browser to see the applet. This applet is provided as a 3D orbit visualization tool. The applet was implemented using 2-body methods, and hence should not be used for determining accurate long-term trajectories (over several years or decades) or planetary encounter circumstances. For accurate long-term ephemerides, please instead use our Horizons system.
Orbit Viewer

Additional Notes: the orbits shown in the applet are color coded. The planets are white lines, and the asteroid/comet is a blue line. The bright white line indicates the portion of the orbit that is above the ecliptic plane, and the darker portion is below the ecliptic plane. Likewise for the asteroid/comet orbit, the light blue indicates the portion above the ecliptic plane, and the dark blue the portion below the ecliptic plane.

Orbit Viewer applet originally written and kindly provided by Osamu Ajiki (AstroArts), and further modified by Ron Baalke (JPL).


Orbital Elements at Epoch 2456400.5 (2013-Apr-18.0) TDB
Reference: JPL 42 (heliocentric ecliptic J2000)
 Element Value Uncertainty (1-sigma)   Units 
e .6211739944666168 1.2697e-07  
a 1.930263183396267 4.1843e-07 AU
q .73123389139416 1.2974e-07 AU
i 23.58029313835044 1.6898e-05 deg
node 116.0001870227395 1.2819e-05 deg
peri 67.3023422040222 1.9507e-05 deg
M 234.4502061826666 0.00031344 deg
tp 2456742.114834013031
(2014-Mar-25.61483401)
0.00096394 JED
period 979.542351328914
2.68
0.00031851
8.72e-07
d
yr
n .3675185656971334 1.195e-07 deg/d
Q 3.129292475398374 6.7835e-07 AU
  Orbit Determination Parameters
   # obs. used (total)      259  
   data-arc span      1734 days (4.75 yr)  
   first obs. used      2005-12-04  
   last obs. used      2010-09-03  
   planetary ephem.      DE405  
   SB-pert. ephem.      SB405-CPV-2  
   condition code      1  
   fit RMS      .5046  
   data source      ORB  
   producer      Otto Matic  
   solution date      2011-Sep-14 20:06:32  

Additional Information
 Earth MOID = .0181397 AU 
 T_jup = 3.571 
[ show covariance matrix ]

Ephemeris | Orbit Diagram | Orbital Elements | Physical Parameters | Close-Approach Data ]

Physical Parameter Table
Parameter Symbol Value Units Sigma Reference Notes
absolute magnitude H 16.999 mag .49272 42 autocmod 2.5a

[ show close-approach data ]
Ephemeris | Orbit Diagram | Orbital Elements | Physical Parameters | Close-Approach Data ]
ABOUT SSD CREDITS/AWARDS PRIVACY/COPYRIGHT GLOSSARY LINKS
FirstGov 2013-May-20 08:58 UT
(server date/time)  
NASA Home Page
Site Manager:   Donald K. Yeomans
Webmaster  Alan B. Chamberlin